GFSFLT2_sfc_wetblb_114.txt.gz
Wetbulb
68.02 68.70 70.18 69.96 69.72 69.92 69.53 70.05 70.41 70.82 71.06 71.17 71.07 70.48 70.41 70.84 70.92 70.82 70.64 70.76 70.69 70.23 69.56 68.98 68.89 68.57 67.28 66.09 65.21 65.43 65.25 65.22
67.30 67.48 68.18 68.97 69.69 68.90 68.90 69.22 69.03 68.99 70.00 69.94 69.22 69.32 69.36 69.75 69.82 70.14 69.94 70.19 70.11 69.72 68.78 68.31 68.22 67.10 65.59 65.17 65.25 64.66 64.50 64.88
67.12 67.21 66.56 66.40 67.37 69.42 69.17 69.65 68.73 68.14 68.51 68.45 67.66 68.54 68.59 68.80 68.45 68.82 69.18 68.93 69.02 68.96 68.18 67.53 66.72 65.82 65.10 64.75 64.86 64.03 64.83 64.98
66.99 66.76 66.45 66.01 68.05 67.78 67.61 69.15 68.56 67.82 67.84 67.80 67.57 67.03 67.14 68.15 67.51 67.48 68.02 67.76 67.96 67.78 67.21 66.56 65.35 63.15 63.53 64.33 63.20 63.88 64.51 64.50
67.37 66.81 66.65 66.43 66.70 66.35 66.66 67.36 67.16 67.09 66.94 66.62 66.46 66.56 66.28 65.86 65.18 66.14 65.30 66.72 66.15 65.90 65.76 63.50 62.03 61.89 62.12 62.44 62.83 64.16 63.73 64.92
67.69 67.37 67.24 66.94 67.10 66.08 66.15 66.37 66.17 66.57 66.82 66.33 66.39 66.10 65.29 64.32 64.43 64.19 63.79 63.25 65.15 65.28 64.15 61.68 61.24 61.85 61.89 62.15 62.36 63.29 63.16 64.11
68.22 68.13 67.52 67.80 67.21 66.54 66.24 66.11 66.13 65.95 65.95 66.56 66.71 65.78 65.54 64.89 63.83 63.80 63.60 63.64 63.59 63.05 61.37 61.20 60.45 60.97 61.67 61.72 61.61 62.69 63.17 63.47
68.92 68.48 68.25 68.15 67.52 67.28 66.77 66.79 66.56 66.20 66.11 66.48 66.47 65.79 64.98 64.53 64.07 63.62 63.28 63.67 63.15 62.44 61.74 60.82 59.99 59.79 59.99 60.58 61.17 62.41 62.76 62.84
68.48 68.76 68.49 67.82 67.11 67.63 67.45 66.99 67.31 66.81 66.56 66.23 66.36 65.56 64.32 63.96 63.92 63.55 63.85 63.64 62.32 61.76 60.54 59.32 58.77 59.43 59.02 60.07 61.53 61.99 62.37 62.82
67.83 69.31 68.32 67.78 67.36 67.69 67.76 66.89 67.30 66.70 66.42 66.63 66.16 65.85 64.89 63.77 63.43 63.20 62.74 63.17 62.82 61.64 61.62 60.78 59.83 60.41 58.55 59.16 60.34 62.10 62.60 62.54
66.57 67.93 67.83 67.67 67.59 67.39 67.54 66.49 66.68 66.01 65.33 65.98 66.16 66.01 65.22 64.20 63.47 62.64 62.75 62.31 62.40 62.12 61.82 61.62 60.42 60.03 60.30 59.89 60.96 61.29 62.31 63.06
65.86 67.07 67.25 67.98 67.50 66.50 66.03 65.05 64.58 65.28 64.97 64.71 64.58 65.83 65.22 63.82 63.00 62.57 63.50 63.45 62.08 61.81 61.63 61.71 61.20 60.17 60.40 60.53 60.53 61.39 62.00 62.17
64.02 65.54 66.79 67.64 66.50 64.96 64.27 64.25 63.66 63.75 64.37 64.38 63.67 63.91 65.02 63.87 63.05 62.35 62.25 62.95 62.72 62.42 61.85 61.00 60.22 61.11 59.88 59.72 59.13 60.21 60.98 61.36
62.66 65.13 66.59 67.18 66.97 66.54 65.26 64.43 62.74 63.51 63.26 63.57 64.01 63.29 63.50 63.35 62.83 62.18 61.88 62.00 61.70 62.41 61.47 60.26 60.38 61.04 57.91 57.57 53.82 56.22 59.46 60.12
60.10 64.40 66.59 67.18 67.23 65.47 62.75 61.62 61.34 60.22 61.74 62.77 62.90 63.41 63.46 63.63 62.71 62.14 61.29 61.74 61.62 61.30 61.32 60.37 58.63 59.88 59.49 56.76 52.38 51.59 55.58 58.45
56.02 59.35 65.34 66.81 66.89 64.91 63.57 62.99 61.49 62.54 62.50 62.69 62.44 63.03 63.01 63.02 62.43 61.42 61.34 61.54 61.13 60.51 60.91 60.09 58.72 57.26 59.17 59.19 57.22 55.90 53.09 51.65
52.16 54.13 57.05 64.52 65.29 65.50 64.26 63.84 63.86 60.56 61.22 60.78 62.07 62.25 62.48 62.68 61.58 60.35 59.17 58.29 57.84 58.79 59.32 59.06 59.03 57.91 58.03 56.14 56.80 55.60 55.21 54.34
48.17 49.39 51.67 55.33 59.43 64.16 63.90 63.20 61.99 60.55 60.61 60.54 60.86 61.21 60.58 61.72 61.18 59.92 58.84 57.36 56.56 57.24 58.64 58.85 58.56 58.74 58.62 57.26 55.75 54.58 53.86 54.36
46.28 46.49 47.79 50.99 52.90 58.82 63.68 63.92 61.94 61.07 61.06 61.08 60.50 60.14 60.23 60.97 60.76 59.69 57.85 57.70 57.60 57.54 57.64 58.12 58.54 58.38 57.56 56.94 57.04 56.24 55.59 54.33
43.64 45.28 46.97 50.22 50.86 53.58 62.90 63.52 62.37 61.98 61.20 61.25 60.64 60.62 60.55 60.75 60.95 59.97 58.04 57.44 58.15 57.30 56.94 57.84 58.46 58.36 57.28 56.88 56.44 56.36 56.40 55.76

GFSFLT2_sfc_wetblb_117.txt.gz
Wetbulb
68.20 69.08 70.25 69.87 69.87 69.83 69.01 69.58 70.27 70.59 70.90 70.79 71.19 70.80 70.46 70.91 70.98 70.90 70.90 70.98 70.77 70.35 69.31 68.76 68.75 68.60 67.12 66.34 65.43 66.59 65.35 65.48
67.21 67.86 69.04 69.33 69.72 68.61 68.45 68.72 69.24 69.69 70.03 69.94 69.44 69.35 69.81 69.94 69.87 70.15 70.29 70.39 70.32 69.72 68.85 68.36 68.17 66.92 66.14 65.45 64.53 65.61 64.77 64.84
66.49 67.14 67.66 68.52 69.50 69.65 68.99 69.33 68.97 68.81 69.53 69.33 68.07 68.61 68.56 69.14 68.70 68.89 69.32 69.42 69.16 69.07 68.36 67.62 66.13 65.12 65.50 65.24 64.74 63.72 64.27 64.73
65.65 66.33 66.53 66.48 68.78 69.22 69.70 69.87 68.23 67.39 68.36 68.29 68.27 67.19 67.12 68.05 68.14 67.91 68.33 68.35 68.29 68.00 67.51 66.88 65.31 63.45 63.25 64.76 63.12 63.14 63.74 64.45
65.57 65.90 65.99 66.04 67.16 68.00 67.82 68.50 68.14 65.87 65.84 66.65 66.64 66.48 66.26 66.21 65.56 66.73 66.40 67.26 66.19 66.10 65.87 64.01 62.49 61.71 61.47 61.32 61.80 62.28 62.89 64.76
65.79 66.21 65.93 66.02 66.01 66.76 66.95 67.01 67.33 67.69 66.83 65.63 67.14 66.16 64.94 63.99 64.45 64.25 64.04 64.29 63.93 63.93 64.76 62.03 61.18 61.12 61.24 61.28 61.43 61.79 62.03 64.25
65.56 65.83 65.52 65.92 65.54 65.40 65.71 66.29 66.57 66.75 67.08 66.67 67.12 66.83 66.06 63.97 63.36 63.50 62.58 62.50 65.30 64.22 63.63 61.15 60.18 60.35 60.89 61.20 61.06 61.27 61.56 62.76
66.38 65.56 65.52 65.85 65.74 64.83 64.99 65.29 65.52 64.97 65.37 66.65 66.12 66.35 65.63 64.43 63.32 63.10 62.37 62.65 62.36 63.20 61.49 60.61 59.98 59.88 60.26 61.56 60.53 61.02 61.23 61.55
67.10 66.19 66.01 65.74 65.81 65.45 64.94 65.02 65.42 64.96 64.91 64.77 65.90 65.29 64.66 64.27 63.62 62.89 62.79 62.53 61.27 60.51 59.42 58.84 58.32 58.94 59.07 60.55 60.05 60.42 60.67 61.19
68.22 68.39 67.01 66.56 65.91 66.48 66.16 65.72 65.49 65.32 65.55 65.37 65.59 65.39 64.47 63.75 63.78 63.21 62.87 62.23 61.81 60.81 61.31 60.45 57.82 58.08 57.19 57.87 59.30 60.24 60.63 60.88
67.19 68.05 67.46 67.08 66.54 66.61 66.54 66.05 66.16 66.05 65.95 65.88 65.28 65.39 64.50 63.58 63.49 62.87 62.35 62.71 62.15 61.79 61.79 61.43 60.16 59.68 59.39 57.25 58.88 59.56 60.30 62.07
67.00 67.60 67.69 67.34 67.36 65.63 65.41 64.27 65.63 65.70 65.72 66.00 65.62 65.78 64.83 63.72 62.99 61.93 62.45 62.55 62.71 62.21 61.44 61.51 60.79 60.32 59.91 59.89 60.10 61.20 61.52 62.07
64.28 65.76 66.87 66.96 66.08 64.93 64.91 64.15 64.59 64.64 65.23 65.40 65.60 65.80 64.76 63.58 62.79 61.88 62.38 63.07 62.66 62.25 61.70 60.70 60.29 60.74 59.20 59.08 59.18 60.22 60.81 61.61
56.10 64.23 65.90 66.85 66.80 66.22 66.08 65.67 63.78 64.41 62.79 63.29 64.57 64.50 64.38 63.79 62.93 61.82 62.68 63.37 62.41 62.09 61.52 60.33 60.45 60.44 58.26 56.79 54.25 56.65 59.26 60.62
54.68 60.83 63.98 66.00 67.07 66.31 62.44 62.11 61.60 61.14 62.10 63.07 63.39 63.48 63.55 63.72 62.86 62.31 62.18 62.49 62.01 62.24 61.99 60.71 59.30 60.11 59.73 56.79 52.44 52.13 55.61 58.83
50.24 53.20 59.39 64.54 65.43 64.88 62.52 63.26 62.15 63.21 63.57 63.91 63.15 63.22 62.58 62.98 62.57 61.73 61.51 62.10 61.49 61.94 61.88 61.18 60.30 58.38 59.40 58.71 57.10 55.83 53.92 52.06
46.98 49.10 51.51 55.22 60.18 65.10 63.65 62.29 62.38 60.63 61.21 62.36 62.04 62.43 62.77 62.71 62.43 61.45 61.02 61.87 62.44 61.45 60.38 60.41 59.74 58.82 58.11 57.29 57.75 56.41 55.73 53.79
45.80 47.24 48.59 51.49 53.78 55.85 63.82 63.26 61.87 59.90 59.54 61.05 61.57 61.45 61.59 62.00 62.02 61.45 61.35 61.10 59.78 59.56 59.61 59.89 59.31 58.51 58.43 56.83 56.15 54.35 54.95 54.51
43.90 45.49 46.65 48.01 51.29 52.79 55.02 63.57 62.54 61.78 61.18 61.14 61.04 61.11 60.95 61.24 61.73 61.42 60.81 59.75 57.97 57.75 58.87 58.75 58.59 58.39 58.01 57.51 57.21 57.04 57.28 56.59
41.44 43.21 45.04 46.49 48.52 50.52 53.53 56.16 63.73 62.67 62.73 61.95 61.08 61.01 61.32 61.60 61.81 61.26 60.58 58.61 58.46 58.60 58.33 57.61 57.75 57.83 57.07 56.93 57.17 57.24 56.43 56.36

GFSFLT2_sfc_wetblb_120.txt.gz
Wetbulb
67.88 69.18 70.06 69.88 69.75 69.66 69.39 69.82 70.06 70.48 70.73 70.93 71.36 70.71 70.56 70.75 70.74 71.12 71.33 71.22 70.98 70.00 69.32 68.84 68.79 68.39 67.59 66.20 65.80 66.56 65.87 65.95
67.48 67.68 68.49 68.47 69.66 68.69 68.76 69.05 69.12 69.37 69.77 69.72 69.36 69.50 69.81 70.14 69.95 70.28 70.55 70.64 70.23 69.64 68.63 68.37 68.08 67.28 66.58 65.31 65.24 65.94 65.33 65.47
67.18 68.04 68.72 69.28 69.16 69.30 68.53 69.21 68.92 68.76 69.30 68.90 67.81 68.94 69.07 69.45 68.98 68.95 69.80 69.58 69.33 69.00 68.35 67.54 66.73 66.31 65.77 64.84 64.47 64.36 64.68 64.85
66.78 67.61 67.55 68.18 68.48 69.10 68.98 69.29 69.28 69.17 69.48 68.35 67.34 66.68 67.20 68.40 68.35 68.06 68.64 68.60 68.40 68.20 67.52 66.67 65.34 65.06 64.19 65.04 62.88 63.43 63.98 64.27
66.13 66.49 66.80 66.98 67.45 67.84 68.40 68.52 68.29 66.88 67.18 67.29 67.22 65.80 65.91 66.32 66.18 67.43 66.46 67.73 66.32 66.32 66.09 65.24 62.92 62.40 62.40 62.54 62.76 62.70 63.15 64.21
65.14 65.95 65.94 66.72 67.56 67.20 66.96 67.46 67.96 67.21 65.89 65.71 67.63 66.95 65.64 64.05 65.28 65.12 64.81 65.05 64.31 64.23 65.50 62.72 61.95 61.84 61.57 61.23 61.55 61.97 62.09 63.40
64.23 65.37 65.41 65.74 65.70 66.38 66.29 66.33 67.32 67.45 66.60 66.12 67.86 67.43 66.20 64.19 63.26 64.01 63.85 63.42 63.88 63.79 64.25 61.27 60.88 60.78 60.93 61.13 61.14 61.63 61.77 62.74
64.00 64.76 64.86 65.03 64.86 65.04 65.40 65.81 66.30 66.28 66.72 66.89 67.52 67.10 66.11 65.24 63.29 62.88 62.38 64.06 65.52 64.89 63.54 60.73 60.26 60.47 59.93 60.64 60.83 61.14 61.31 62.03
64.24 64.40 64.65 64.49 64.65 64.31 64.45 65.00 65.36 64.83 65.36 66.33 66.09 66.56 66.00 65.25 64.29 62.52 62.43 62.30 63.32 63.08 61.37 59.42 59.20 59.62 59.55 60.24 60.72 61.63 61.06 61.21
65.74 65.42 64.55 64.27 64.42 64.12 64.02 64.09 64.34 64.18 64.26 65.18 65.74 65.45 65.42 64.08 64.23 63.00 61.80 61.75 61.35 60.55 60.58 60.36 58.40 58.22 58.12 58.58 59.38 59.93 60.46 60.73
66.69 66.13 64.84 64.35 64.49 64.65 63.95 63.33 63.75 63.75 63.66 64.16 65.04 65.32 64.50 64.65 64.36 63.32 61.89 62.23 61.83 61.16 61.42 61.14 59.82 59.12 57.75 57.49 58.19 59.04 59.81 61.48
66.77 67.35 66.67 65.34 64.91 64.87 64.79 64.40 64.29 64.45 64.52 64.44 64.03 64.96 64.23 63.89 63.52 62.27 62.73 63.01 62.59 62.05 61.71 61.56 60.95 60.44 60.28 59.75 58.50 59.22 60.16 60.19
62.21 66.23 66.85 66.43 66.03 64.57 64.68 63.90 64.81 64.93 64.80 64.92 64.55 64.72 64.23 63.48 63.26 61.85 62.89 63.11 62.35 61.75 61.84 60.77 60.13 60.77 58.86 58.76 59.08 60.29 60.74 61.06
50.83 60.48 65.48 66.27 66.56 65.93 65.38 65.16 65.47 65.40 65.48 64.98 65.14 64.98 64.23 63.90 63.61 62.44 62.81 62.86 62.81 61.98 61.72 60.23 60.45 60.68 58.30 57.13 54.84 56.97 59.34 60.09
47.79 51.05 61.55 65.98 66.77 66.34 62.98 63.07 61.68 62.58 62.86 63.84 64.66 65.32 64.56 64.33 63.43 62.97 62.90 63.24 62.79 62.40 62.14 61.03 59.32 59.98 60.08 57.23 52.79 52.20 55.58 59.18
46.19 49.05 52.76 60.25 65.42 65.33 64.02 63.75 62.93 63.79 64.18 64.26 64.43 65.04 65.01 64.38 63.41 62.64 63.05 63.29 62.93 62.44 62.55 61.82 60.48 58.03 59.62 59.25 57.39 56.36 53.16 52.39
44.84 49.01 51.36 53.57 56.01 64.06 63.23 63.24 63.18 60.97 62.01 62.81 64.07 62.76 63.18 63.62 62.76 62.21 62.63 62.66 62.65 61.61 61.85 61.70 61.17 59.81 59.00 57.88 57.45 56.25 56.19 53.90
43.88 46.35 48.42 50.82 53.25 54.66 58.60 62.44 60.15 60.02 60.58 61.66 62.37 62.15 62.06 62.23 62.28 61.81 61.83 62.31 62.24 62.26 61.87 60.93 60.06 60.08 59.66 58.15 57.47 56.23 55.31 54.63
42.89 44.22 45.65 47.24 49.36 50.85 53.02 55.22 59.19 60.88 61.13 62.01 61.40 61.42 61.45 61.58 62.14 62.01 61.88 62.05 62.37 61.95 61.01 60.27 60.21 59.57 58.66 58.11 58.10 57.44 56.49 56.56
40.95 41.92 42.92 44.41 46.05 47.40 49.86 52.36 55.81 59.42 62.37 61.42 61.73 61.52 61.77 62.35 62.58 62.65 62.48 61.85 61.27 60.57 60.26 59.96 59.99 59.41 58.33 58.27 57.83 57.72 57.15 56.54

GFSFLT2_sfc_wetblb_123.txt.gz
Wetbulb
72.00 72.46 71.94 69.92 69.60 69.90 69.44 69.61 70.06 70.46 70.92 71.17 71.37 71.11 70.74 71.33 71.51 71.73 71.64 71.51 70.91 69.98 69.49 68.94 69.11 68.58 67.86 66.95 66.39 67.17 70.72 70.80
71.27 71.88 72.61 72.61 72.56 68.75 68.48 68.81 68.90 69.42 69.84 69.89 69.54 69.51 69.86 69.98 70.14 70.79 70.92 70.84 70.32 69.53 68.87 68.33 68.29 67.60 66.70 65.97 65.86 66.52 70.13 69.88
70.68 71.11 71.51 71.98 71.58 71.38 69.17 69.17 68.99 68.70 69.56 69.13 68.81 72.47 72.38 71.75 70.04 69.32 70.04 69.95 69.48 68.95 68.24 67.62 66.95 66.66 66.32 65.25 65.95 70.05 69.95 69.78
69.51 70.47 70.47 70.91 70.20 70.49 71.68 71.85 71.48 71.58 71.83 72.00 72.27 72.44 72.43 71.52 70.06 68.34 69.01 68.85 68.58 68.22 67.62 66.58 67.17 69.19 69.04 65.86 69.21 69.31 69.42 69.34
68.53 69.26 70.10 69.61 69.25 69.49 70.27 70.64 70.00 70.46 71.10 71.64 72.07 71.55 71.76 71.73 72.09 71.19 71.81 69.08 70.76 69.42 69.17 69.42 67.67 67.23 69.26 69.47 68.80 68.45 69.08 69.24
68.08 68.70 68.78 68.90 69.27 68.66 68.79 68.69 68.68 68.65 69.03 69.67 69.43 69.59 70.65 71.11 71.08 71.17 71.03 70.91 70.67 69.95 69.31 67.46 69.10 68.35 68.54 68.66 68.57 68.38 68.23 68.54
67.11 67.21 67.48 67.17 68.03 68.27 68.22 67.68 68.14 68.48 68.20 69.09 69.18 68.97 68.64 69.95 70.60 70.39 70.71 70.99 70.15 69.18 68.41 68.78 68.53 67.90 67.47 67.18 66.91 67.42 67.74 67.91
66.82 67.26 68.02 67.59 67.24 67.88 67.23 67.60 68.14 68.19 68.32 68.82 69.29 69.52 68.46 68.33 68.90 69.45 68.96 70.05 69.80 69.02 67.77 68.01 68.15 67.68 66.33 64.86 65.66 66.62 66.88 67.06
66.08 67.24 68.06 68.05 67.43 67.53 67.03 67.09 67.26 67.18 67.66 68.55 68.75 68.70 68.61 67.62 67.10 68.13 68.92 68.78 68.65 67.72 66.36 65.63 67.26 66.30 65.04 64.16 65.98 66.12 66.15 66.05
66.91 66.63 67.29 67.55 67.65 67.55 66.71 66.82 66.53 66.11 66.69 66.75 67.06 67.67 68.00 66.86 65.79 66.71 68.20 67.13 66.14 64.84 63.68 63.73 66.13 65.98 65.76 65.56 65.52 65.48 65.62 65.40
67.75 67.06 66.82 67.19 67.82 67.69 67.68 67.22 65.93 65.33 65.80 65.88 66.14 66.97 67.19 65.92 65.81 66.32 67.34 66.85 65.81 63.92 63.02 63.86 62.53 63.02 64.91 65.43 64.97 64.43 65.05 64.80
68.44 68.17 67.67 67.44 67.09 67.20 67.05 66.84 66.92 67.17 66.53 67.14 66.87 65.95 66.14 66.50 66.38 65.83 66.23 65.41 65.12 64.77 64.24 63.45 63.47 63.29 62.46 63.10 63.60 64.01 64.47 64.92
67.45 67.98 67.93 67.11 65.95 65.55 65.50 64.83 65.95 66.20 66.65 67.35 67.58 67.83 65.91 66.76 66.14 65.35 65.06 64.97 64.49 64.40 63.88 62.30 62.29 62.82 60.92 60.22 60.77 62.19 61.77 62.74
55.33 63.01 68.38 67.62 67.25 66.91 67.16 66.94 66.95 67.08 66.98 66.75 67.36 67.26 67.53 67.49 66.40 65.19 64.83 64.68 64.43 63.92 62.94 61.51 62.10 62.25 60.77 59.86 57.08 59.42 60.70 63.14
52.04 54.75 59.04 67.83 68.76 68.15 67.22 67.74 66.96 65.79 65.68 65.32 65.67 67.12 67.26 67.43 66.81 65.72 64.84 65.17 63.48 62.97 62.72 62.74 60.75 62.18 63.43 62.19 56.48 56.60 58.77 60.93
51.32 55.15 57.65 60.57 65.83 67.53 66.03 65.25 64.23 65.54 65.13 65.23 65.37 66.79 67.30 67.47 66.49 65.60 64.95 65.10 64.94 63.93 64.57 64.99 64.08 60.91 62.07 62.76 63.08 61.82 57.96 56.87
49.48 53.12 54.09 55.07 59.65 63.23 66.23 65.50 67.18 67.60 66.82 65.34 65.26 65.76 66.91 66.72 66.12 65.37 65.12 65.15 64.95 63.94 63.91 64.92 64.06 63.03 61.61 60.78 60.38 59.68 60.49 58.33
47.23 48.93 49.34 51.54 53.25 54.15 56.70 63.90 65.67 64.81 66.01 65.23 64.85 65.39 65.29 65.24 64.96 64.98 64.62 64.26 64.56 64.01 64.88 65.29 64.04 63.16 63.11 61.92 60.34 58.45 57.21 58.01
43.45 44.65 44.76 47.81 48.75 50.01 51.35 53.16 55.57 59.84 65.35 65.12 64.70 64.22 63.48 63.96 64.14 64.00 64.04 64.00 63.87 64.10 63.68 64.99 64.24 63.57 63.46 62.70 62.68 62.20 62.52 60.14
40.73 42.07 42.89 44.58 45.64 47.12 49.18 51.16 52.96 55.17 57.80 61.72 64.17 63.56 64.24 64.22 64.02 64.63 64.57 63.76 63.67 63.92 63.37 63.36 63.32 63.30 63.03 62.39 61.26 61.70 62.15 59.33

GFSFLT2_sfc_wetblb_126.txt.gz
Wetbulb
75.02 74.06 72.80 70.22 70.03 70.01 69.40 69.86 70.42 70.99 71.31 71.60 72.01 71.41 71.20 71.74 71.73 71.83 71.90 71.36 71.25 70.75 69.65 69.28 69.44 69.08 68.62 67.77 67.32 68.45 71.88 72.14
74.83 74.50 74.16 74.01 73.68 68.89 68.68 69.08 69.40 69.97 70.55 70.53 70.20 70.26 70.71 71.08 70.83 71.11 71.49 71.26 70.66 69.80 69.18 68.90 68.77 67.88 67.54 67.07 66.80 67.40 71.74 71.09
74.47 74.22 74.31 74.35 74.28 72.85 69.51 69.25 69.04 69.16 70.37 69.59 69.54 73.29 73.59 73.08 71.05 70.03 70.25 70.38 69.79 69.25 68.79 68.14 67.54 67.07 66.65 66.42 66.42 70.96 71.19 71.26
73.41 73.78 73.90 74.26 73.38 74.21 73.47 73.17 72.44 72.48 72.90 73.09 73.03 73.05 73.35 72.37 70.63 69.04 69.16 69.16 68.97 68.52 68.14 67.36 67.44 71.13 70.16 66.75 70.35 71.45 70.92 71.67
72.28 73.23 73.80 73.45 72.82 73.03 72.36 73.04 72.87 72.54 73.03 73.20 73.06 72.77 73.09 72.62 72.75 72.02 72.54 69.45 71.65 69.91 69.72 70.68 70.78 70.94 70.70 70.64 70.46 70.55 70.54 70.61
71.42 72.44 72.75 73.16 72.65 72.17 72.55 72.34 71.47 71.52 72.44 73.50 72.79 72.42 72.54 71.89 71.93 71.83 71.56 71.92 71.45 71.06 70.56 70.64 70.79 70.93 70.55 70.40 70.48 70.04 69.88 70.09
70.23 71.54 71.85 72.04 72.01 71.70 71.78 71.91 71.61 70.73 70.61 71.57 72.18 72.31 71.99 72.12 72.25 71.90 71.62 71.74 71.28 70.86 70.59 70.48 70.13 70.03 69.93 69.83 69.54 69.74 69.44 69.42
70.19 70.43 70.85 70.98 70.93 71.61 71.35 71.42 71.50 70.94 70.15 70.49 71.02 72.17 71.86 71.84 71.83 70.92 71.75 71.94 71.38 70.73 70.37 69.75 69.55 69.35 69.00 68.97 68.71 68.89 69.07 68.88
68.11 69.92 70.82 70.43 69.94 70.80 70.95 70.85 70.96 70.46 70.43 69.95 70.37 71.60 71.55 70.32 70.38 70.78 70.34 71.23 71.25 70.98 70.22 69.71 69.15 68.86 68.31 68.66 68.21 68.25 67.84 68.49
62.77 68.80 69.73 70.44 70.20 70.35 70.27 70.58 70.01 70.48 70.37 71.50 69.76 70.40 71.40 69.95 68.88 69.65 71.56 70.70 70.32 69.24 68.48 67.76 68.49 67.92 67.92 68.14 68.06 68.33 68.46 68.21
60.49 68.25 69.43 69.84 70.27 70.14 70.19 70.28 68.59 69.78 70.16 70.62 70.62 69.64 70.78 69.43 68.44 68.56 70.74 68.27 67.95 67.75 66.96 68.05 67.04 67.81 67.47 67.65 67.76 67.61 67.78 67.57
59.47 65.25 70.03 69.91 70.15 70.08 69.73 69.37 68.94 69.38 68.25 68.72 69.46 68.57 68.98 68.73 68.05 67.96 68.38 68.06 67.13 66.85 66.12 66.14 67.21 67.39 66.24 66.21 66.70 67.22 67.49 67.31
59.03 62.92 69.13 69.91 68.76 67.90 67.85 67.40 68.29 68.56 69.10 69.48 69.73 67.98 67.78 67.78 68.34 67.57 67.21 66.76 67.08 67.06 66.04 65.00 65.20 66.68 65.22 64.20 64.25 65.50 65.65 65.70
58.16 63.26 66.64 69.90 69.50 68.50 68.55 68.33 68.24 68.67 69.31 69.31 69.69 69.63 68.64 67.16 67.87 67.05 66.39 68.16 66.43 66.48 66.19 63.82 65.02 65.47 62.52 62.06 60.55 62.38 63.62 63.99
55.53 60.35 67.11 69.28 69.41 69.62 68.69 68.79 68.87 67.98 68.41 68.27 68.84 69.39 69.68 68.57 69.33 69.52 68.47 68.14 66.19 65.89 65.46 64.42 62.61 63.77 65.67 62.78 59.23 57.72 61.41 64.27
54.34 58.87 60.86 65.40 67.09 68.07 68.59 67.84 66.99 68.41 68.60 69.32 68.97 69.05 69.03 69.43 69.41 69.42 68.93 66.90 67.33 65.85 65.37 65.38 64.74 61.48 62.87 65.50 65.22 63.78 59.68 58.51
49.40 53.40 57.45 60.58 64.33 62.48 66.47 67.46 69.05 69.52 68.23 67.83 67.55 67.61 68.73 69.11 69.18 69.56 68.39 66.71 67.14 66.19 65.04 65.09 66.55 65.85 64.37 63.95 63.56 63.80 63.45 60.28
46.17 48.01 50.12 54.04 57.72 57.39 59.84 65.00 67.90 67.25 67.32 66.81 66.30 66.40 66.69 67.22 69.05 68.50 68.04 66.91 66.24 66.55 65.68 65.92 66.21 66.62 66.32 64.59 62.97 61.66 60.26 59.79
44.70 44.87 45.63 48.39 51.61 52.52 54.18 56.15 58.74 60.34 61.29 63.62 65.77 65.51 66.06 66.13 66.46 66.29 66.17 66.45 66.28 66.75 67.04 65.65 66.13 65.88 66.43 64.98 64.69 63.26 63.27 61.84
41.85 42.30 43.42 45.30 47.52 49.36 50.57 52.65 53.99 55.13 55.22 57.67 58.64 62.01 65.77 66.16 66.00 65.93 65.93 65.64 66.83 67.63 67.91 67.24 67.20 67.38 66.41 65.71 65.01 64.83 64.04 64.02

GFSFLT2_sfc_wetblb_129.txt.gz
Wetbulb
76.05 73.80 72.44 70.25 70.10 70.05 69.85 70.56 70.94 71.35 71.84 71.96 72.21 71.92 71.53 71.98 71.95 72.09 72.30 71.42 71.28 71.21 70.29 69.79 69.70 69.64 69.20 68.39 68.12 68.96 70.88 71.09
75.03 74.25 73.67 73.06 72.95 69.18 68.93 69.42 69.76 70.43 70.93 70.94 70.63 70.65 70.86 71.10 71.07 71.39 71.62 71.18 71.07 70.36 69.47 69.19 69.21 68.70 68.08 67.66 67.79 68.19 70.61 70.08
75.04 73.78 74.11 73.73 73.55 72.06 69.34 69.51 69.69 69.61 70.69 70.11 69.93 72.90 73.15 72.70 70.85 70.18 71.02 70.62 69.94 69.40 68.96 68.72 68.06 67.56 67.61 67.36 67.09 70.10 69.76 69.67
74.30 74.00 74.28 74.04 73.57 73.97 72.65 72.25 71.92 72.21 72.46 73.15 72.87 72.85 72.90 72.07 70.55 69.33 69.38 69.87 69.19 68.67 68.38 67.86 67.63 70.13 69.71 66.89 69.61 69.74 69.74 68.37
73.70 73.88 74.82 74.38 73.62 73.56 73.03 72.75 72.16 72.51 72.99 73.44 73.20 72.95 73.61 72.58 72.64 71.95 72.63 70.02 71.36 69.59 69.55 70.03 69.90 69.59 68.56 69.66 69.45 70.89 69.32 68.78
71.86 73.68 73.90 75.11 73.58 72.70 72.97 73.05 73.34 72.90 72.67 74.39 73.58 72.79 73.72 72.79 71.77 72.33 72.24 71.53 71.08 70.35 70.14 70.23 70.31 70.66 69.98 69.41 70.65 70.16 67.79 68.49
64.91 72.62 73.40 74.28 74.44 72.80 72.96 73.18 72.50 73.18 73.40 74.01 73.63 72.18 73.48 72.63 72.52 72.12 71.40 71.81 70.65 70.71 70.25 69.72 70.12 69.93 69.78 69.61 69.33 69.69 69.95 69.04
62.84 69.48 72.49 73.15 73.20 74.26 73.32 73.31 72.68 72.18 72.48 72.90 74.48 73.31 74.03 72.36 71.48 71.64 71.47 71.58 71.45 71.02 69.87 68.85 69.83 68.98 68.82 69.20 69.35 68.95 68.43 69.85
62.21 68.67 72.27 71.93 73.23 72.86 72.60 71.62 72.41 72.36 71.90 72.84 72.40 73.35 73.96 72.96 72.47 71.26 71.57 72.51 72.20 71.28 70.49 70.51 69.19 69.14 68.53 68.48 68.50 68.75 68.68 68.58
60.23 61.16 71.24 72.92 72.02 72.09 71.76 71.55 72.16 71.33 71.59 71.82 70.38 72.12 73.31 72.80 71.37 71.62 72.12 71.96 71.37 71.08 69.99 69.31 69.09 67.85 67.74 67.88 67.55 68.01 68.50 68.28
57.81 61.92 63.84 72.31 72.24 71.94 72.12 72.40 71.90 71.45 71.48 71.43 71.48 70.80 72.12 71.83 69.45 70.49 72.98 70.90 71.09 70.43 69.72 69.65 67.90 68.09 67.24 67.57 67.90 67.58 68.13 67.13
60.12 61.33 63.68 70.93 71.99 71.36 71.31 71.55 71.31 71.27 70.66 70.40 72.05 70.88 70.66 72.21 70.15 69.65 70.03 70.71 69.61 68.97 68.05 68.22 68.09 67.58 66.72 66.48 66.81 67.20 67.52 67.38
57.86 59.07 61.54 64.03 69.89 68.67 69.82 68.94 69.99 70.15 70.31 70.35 71.50 71.28 70.26 69.70 69.71 68.96 68.43 68.24 68.32 68.16 67.20 66.94 66.71 67.95 66.39 65.57 67.18 67.34 67.18 67.26
55.92 56.77 58.43 61.13 67.53 69.80 69.96 70.25 70.16 70.32 70.14 70.31 70.34 70.85 71.11 69.20 68.96 69.67 67.68 66.83 67.68 66.92 66.33 65.66 67.01 67.01 64.87 63.32 60.42 63.11 65.81 66.48
51.89 54.67 58.04 60.15 62.62 68.50 68.77 71.15 70.38 69.61 69.21 69.26 70.11 70.99 70.52 68.63 68.15 70.09 68.01 67.87 68.28 66.41 66.40 65.51 64.17 65.11 66.06 63.49 59.75 57.79 60.60 65.57
47.34 50.79 54.98 59.78 61.20 61.55 67.17 66.98 67.33 68.36 68.61 69.16 69.25 70.75 70.32 69.71 68.93 69.78 69.57 68.94 68.64 68.40 66.19 65.58 64.98 62.65 65.09 66.25 66.79 64.73 59.68 59.10
44.54 47.67 51.56 54.68 55.03 58.78 66.85 65.94 68.59 68.22 67.89 67.55 69.32 70.13 70.23 70.08 69.26 69.77 70.32 70.36 69.45 69.91 66.37 65.19 65.64 65.39 63.87 63.80 64.91 65.61 64.76 61.42
43.75 44.87 47.04 52.23 52.53 54.00 61.10 66.44 64.66 63.04 63.47 65.79 67.61 67.81 68.15 68.60 69.23 69.08 70.27 70.67 69.23 68.68 68.72 64.95 65.99 65.85 65.42 64.71 64.10 61.90 61.43 61.66
42.80 43.53 43.69 47.23 49.70 50.56 53.14 57.10 60.22 60.08 58.29 59.26 64.96 66.35 66.64 67.39 67.93 67.97 68.17 69.63 69.02 68.25 68.05 66.90 65.89 66.12 64.54 64.74 65.00 63.50 63.80 63.41
40.61 42.67 42.61 44.27 47.70 48.22 50.24 52.47 55.32 56.43 56.93 58.37 58.86 60.75 62.65 67.17 68.10 67.84 66.93 65.96 65.89 66.24 67.21 66.89 66.69 66.76 66.10 64.35 65.48 66.12 65.14 63.96